Probability
0 0 0 0 0 0 0 0 0 0 0 0 0 0 0 0 0 0 0 0 0 0 0 0 0 0 0 0 0 0 0 0 0 0 0 0 0 0
0 0 0 0 0 0 0 0 0 0 0 0 0 0 0 0 0 0 0 0 0 0 0 0 0 0 0 0 0 0 0 0 0 0 0 0 0 0
0 0 0 0 0 0 0 0 0 0 0 0 0 0 0 0 0 0 0 0 0 0 0 0 0 0 0 0 0 0 0 0 0 0 0 0 0 0
0 0 0 0 0 0 0 0 0 0 0 0 0 0 0 0 0 0 0 0 0 0 0 0 0 0 0 0 0 0 0 0 0 0 0 0 0 0
0 0 0 0 0 0 0 0 0 0 0 0 0 0 0 0 0 0 0 0 0 0 0 0 0 0 0 0 0 0 0 0 0 0 0 0 0 0
0 0 0 0 0 0 0 0 0 0 0 0 0 0 0 0 0 0 0 0 0 0 0 0 0 0 0 0 0 0 0 0 0 0 0 0 0 0
0 0 0 0 0 0 0 0 0 0 0 0 0 0 0 0 0 0 0 0 0 0 0 0 0 0 0 0 0 0 0 0 0 0 0 0 0 0
0 0 0 0 0 0 0 0 0 0 0 0 0 0 0 0 0 0 0 0 0 0 0 0 0 0 0 0 0 0 0 0 0 0 0 0 0 0
0 0 0 0 0 0 0 0 0 0 0 0 0 0 0 0 0 0 0 0 0 0 0 0 0 0 0 0 0 0 0 0 0 0 0 0 0 0
0 0 0 0 0 0 0 0 0 0 0 0 0 0 0 0 0 0 0 0 0 0 0 0 0 0 0 0 0 0 0 0 0 0 0 0 0 0
0 0 0 0 0 0 0 0 0 0 0 0 0 0 0 0 0 0 0 0 0 0 0 0 0 0 0 0 0 0 0 0 0 0 0 0 0 0
0 0 0 0 0 0 0 0 0 0 0 0 0 0 0 0 0 0 0 0 0 0 0 0 0 0 0 0 0 0 0 0 0 0 0 0 0 0
0 0 0 0 0 0 0 0 0 0 0 0 0 0 0 0 0 0 0 0 0 0 0 0 0 0 0 0 0 0 0 0 0 0 0 0 0 0
0 0 0 0 0 0 0 0 0 0 0 0 0 0 0 0 0 0 0 0 0 0 0 0 0 0 0 0 0 0 0 0 0 0 0 0 0 0
0 0 0 0 0 0 0 0 0 0 0 0 0 0 0 0 0 0 0 0 0 0 0 0 0 0 0 0 0 0 0 0 0 0 0 0 0 0
0 0 0 0 0 0 0 0 0 0 0 0 0 0 0 0 0 0 0 0 0 0 0 0 0 0 0 0 0 0 0 0 0 0 0 0 0 0
0 0 0 0 0 0 0 0 0 0 0 0 0 0 0 0 0 0 0 0 0 0 0 0 0 0 0 0 0 0 0 0 0 0 0 0 0 0
0 0 0 0 0 0 0 0 0 0 0 0 0 0 0 0 0 0 0 0 0 0 0 0 0 0 0 0 0 0 0 0 0 0 0 0 0 0
0 0 0 0 0 0 0 0 0 0 0 0 0 0 0 0 0 0 0 0 0 0 0 0 0 0 0 0 0 0 0 0 0 0 0 0 0 0
0 0 0 0 0 0 0 0 0 0 0 0 0 0 0 0 0 0 0 0 0 0 0 0 0 0 0 0 0 0 0 0 0 0 0 0 0 0
0 0 0 0 0 0 0 0 0 0 0 0 0 0 0 0 0 0 0 0 0 0 0 0 0 0 0 0 0 0 0 0 0 0 0 0 0 0
0 0 0 0 0 0 0 0 0 0 0 0 0 0 0 0 0 0 0 0 0 0 0 0 0 0 0 0 0 0 0 0 0 0 0 0 0 0
0 0 0 0 0 0 0 0 0 0 0 0 0 0 0 0 0 0 0 0 0 0 0 0 0 0 0 0 0 0 0 0 0 0 0 0 0 0
Height
5616 5618 5621 5624 5627 5630 5633 5637 5641 5645 5650 5655 5659 5663 5667 5671 5675 5679 5684 5689 5693 5697 5700 5703 5707 5710 5713 5715 5718 5721 5724 5726 5729 5731 5733 5735 5737 5739
5601 5604 5606 5609 5612 5615 5618 5621 5625 5630 5635 5640 5644 5648 5652 5656 5661 5665 5670 5674 5679 5683 5687 5690 5694 5697 5700 5703 5706 5709 5712 5714 5717 5719 5722 5724 5726 5727
5586 5589 5591 5594 5597 5600 5602 5606 5610 5614 5619 5624 5628 5632 5636 5641 5646 5650 5655 5660 5664 5668 5673 5677 5680 5684 5687 5690 5693 5696 5699 5702 5705 5707 5710 5712 5714 5716
5571 5574 5576 5578 5581 5584 5586 5590 5594 5598 5603 5608 5613 5617 5621 5625 5630 5636 5641 5645 5650 5654 5659 5663 5666 5670 5673 5677 5680 5684 5687 5689 5692 5695 5697 5700 5702 5703
5555 5557 5560 5562 5565 5567 5570 5574 5577 5581 5586 5591 5597 5601 5605 5610 5615 5620 5625 5630 5635 5639 5644 5648 5652 5656 5660 5663 5667 5670 5673 5676 5679 5682 5684 5686 5689 5690
5538 5541 5543 5546 5549 5551 5554 5558 5561 5565 5569 5574 5580 5585 5590 5594 5599 5604 5610 5614 5619 5624 5629 5633 5638 5642 5646 5649 5653 5656 5659 5662 5665 5668 5670 5673 5675 5677
5522 5524 5527 5529 5532 5534 5538 5541 5545 5549 5553 5558 5563 5569 5574 5579 5584 5588 5593 5598 5603 5608 5613 5618 5623 5627 5630 5634 5638 5641 5645 5648 5651 5653 5656 5659 5661 5663
5506 5508 5511 5513 5516 5518 5521 5525 5528 5533 5537 5541 5547 5552 5558 5562 5567 5572 5577 5583 5589 5594 5597 5602 5607 5611 5615 5619 5622 5626 5630 5633 5636 5639 5642 5644 5647 5649
5490 5493 5495 5497 5500 5503 5506 5509 5513 5517 5521 5526 5531 5536 5541 5547 5551 5557 5561 5566 5572 5577 5581 5587 5591 5595 5599 5603 5607 5611 5614 5618 5621 5624 5627 5630 5632 5635
5474 5477 5480 5482 5485 5488 5491 5494 5498 5502 5506 5511 5516 5521 5525 5529 5535 5540 5544 5550 5556 5561 5564 5570 5575 5579 5583 5587 5591 5595 5599 5603 5606 5609 5612 5615 5618 5620
5459 5462 5464 5467 5470 5473 5476 5480 5484 5487 5490 5495 5500 5504 5509 5514 5519 5523 5529 5534 5539 5544 5548 5553 5558 5562 5567 5571 5575 5579 5583 5587 5591 5594 5597 5600 5603 5605
5444 5447 5449 5452 5454 5457 5460 5464 5469 5472 5476 5480 5484 5489 5493 5498 5503 5508 5513 5517 5523 5528 5532 5536 5541 5544 5550 5555 5559 5563 5567 5571 5575 5578 5582 5585 5587 5590
5429 5432 5434 5436 5439 5442 5445 5449 5453 5457 5460 5465 5469 5474 5478 5482 5487 5492 5497 5502 5507 5513 5517 5520 5525 5529 5534 5540 5543 5547 5551 5555 5559 5562 5565 5569 5571 5574
5415 5417 5420 5422 5425 5428 5431 5434 5438 5442 5445 5450 5454 5459 5463 5468 5472 5476 5481 5485 5491 5496 5500 5504 5509 5514 5518 5523 5528 5531 5535 5539 5542 5546 5549 5553 5555 5558
5400 5403 5405 5407 5410 5413 5416 5420 5423 5427 5430 5435 5439 5444 5448 5452 5456 5461 5465 5470 5475 5480 5484 5488 5493 5497 5501 5506 5511 5515 5519 5522 5526 5530 5533 5536 5539 5541
5386 5388 5391 5393 5396 5399 5402 5405 5408 5412 5416 5420 5424 5428 5432 5437 5441 5446 5450 5455 5460 5464 5468 5472 5476 5480 5485 5489 5494 5499 5502 5506 5510 5513 5516 5519 5522 5524
5372 5374 5376 5379 5382 5385 5387 5390 5394 5397 5401 5405 5409 5413 5418 5422 5426 5431 5435 5440 5445 5449 5453 5456 5460 5464 5468 5472 5477 5481 5485 5488 5492 5495 5498 5501 5505 5507
5359 5361 5363 5365 5368 5371 5374 5376 5379 5383 5386 5390 5394 5398 5403 5407 5411 5415 5420 5425 5429 5434 5437 5441 5444 5448 5452 5457 5460 5464 5467 5471 5474 5476 5479 5483 5487 5489
5347 5349 5351 5353 5355 5357 5360 5363 5366 5369 5372 5376 5380 5384 5388 5392 5396 5401 5405 5410 5414 5419 5422 5426 5429 5432 5436 5441 5444 5447 5450 5453 5456 5459 5462 5465 5469 5472
5336 5338 5340 5341 5343 5345 5347 5350 5353 5356 5359 5362 5365 5369 5374 5378 5382 5387 5391 5395 5399 5404 5407 5411 5414 5417 5421 5425 5428 5431 5433 5436 5439 5442 5444 5447 5450 5453
5326 5327 5329 5330 5332 5334 5336 5338 5340 5343 5346 5349 5352 5356 5360 5364 5368 5373 5377 5381 5385 5389 5393 5396 5399 5402 5405 5409 5413 5416 5418 5420 5422 5425 5428 5430 5433 5436
5316 5317 5318 5319 5321 5322 5324 5326 5328 5331 5334 5336 5339 5343 5347 5351 5355 5359 5363 5367 5370 5374 5378 5382 5385 5388 5391 5394 5398 5401 5404 5405 5407 5409 5412 5414 5416 5420
5306 5307 5308 5309 5310 5311 5313 5315 5317 5319 5322 5325 5328 5331 5335 5339 5342 5346 5350 5353 5357 5360 5364 5367 5371 5374 5377 5380 5383 5387 5389 5391 5393 5396 5398 5399 5401 5404
Wind_Speed
53 53 54 54 54 54 55 55 56 56 56 56 56 56 56 55 55 54 53 52 51 51 51 50 49 49 49 48 48 47 47 46 45 45 45 44 43 43
55 55 55 55 55 56 56 56 57 57 56 56 56 57 57 57 57 56 55 54 53 53 53 52 51 50 49 49 49 49 47 47 47 46 46 45 45 44
55 56 56 56 56 57 57 57 57 58 57 57 57 57 57 58 58 58 57 56 55 54 54 54 53 52 51 50 50 50 48 48 48 48 47 46 46 46
56 56 57 57 57 58 58 57 57 58 59 58 58 57 58 58 59 58 58 58 57 56 55 54 54 53 52 52 52 52 51 50 49 48 49 49 48 48
57 57 58 58 58 58 58 58 59 59 59 59 59 58 58 58 58 58 58 58 58 57 57 56 55 54 53 52 52 52 52 51 51 50 50 50 50 49
57 57 58 58 58 59 59 59 59 59 60 60 60 60 58 58 58 58 59 59 59 58 58 57 57 56 55 54 54 54 53 52 52 52 52 51 51 51
56 57 57 57 58 58 59 59 59 59 60 60 60 60 59 59 59 59 59 59 59 59 59 59 58 58 57 56 55 55 55 54 53 53 53 52 51 51
55 55 56 57 56 56 56 57 58 58 58 59 60 60 59 60 60 61 60 60 60 59 59 59 59 58 58 57 56 56 56 54 53 53 53 52 52 52
54 54 55 55 55 55 55 56 56 57 58 58 59 59 59 60 60 60 60 60 59 59 60 59 59 58 58 58 57 57 57 56 54 53 53 53 53 53
53 54 54 54 54 54 55 55 55 55 55 56 57 58 59 59 59 60 61 61 60 60 60 60 60 60 60 59 58 57 57 56 55 55 54 54 54 54
52 52 53 53 54 54 54 53 53 54 55 55 56 57 59 59 59 59 59 60 60 60 60 60 60 60 59 58 58 57 57 57 56 56 55 54 54 54
50 50 51 51 52 53 53 53 54 54 55 55 55 56 58 59 59 59 59 59 59 58 58 58 58 58 58 57 57 57 57 57 57 57 56 55 54 54
49 49 49 50 51 51 52 53 53 54 54 54 55 56 56 57 57 58 58 58 59 58 58 57 56 56 57 56 57 58 58 57 57 57 57 56 56 56
47 47 48 49 50 50 50 51 51 52 53 53 54 54 55 56 56 56 56 56 58 59 59 58 57 57 57 57 57 58 58 58 58 58 57 57 57 56
47 47 47 48 49 50 50 50 51 51 52 52 52 53 54 54 55 55 55 56 57 58 59 59 59 58 58 58 57 58 58 58 58 58 58 58 57 57
46 46 47 47 48 48 49 50 51 51 50 50 50 52 52 53 54 54 54 56 56 56 57 58 59 60 59 59 58 58 59 59 59 59 59 59 59 59
43 44 45 46 46 47 47 48 49 50 50 50 50 51 51 51 52 53 54 54 55 55 56 56 58 60 59 59 58 58 58 59 59 60 60 61 61 61
40 41 42 43 44 45 45 46 47 48 49 49 50 51 51 51 51 52 53 53 54 54 55 55 56 57 58 57 57 57 58 58 60 60 61 61 61 61
36 37 38 39 41 42 44 45 45 46 47 48 48 49 50 50 50 50 51 52 52 52 52 53 53 54 55 55 55 56 56 57 58 59 59 59 59 59
34 35 36 37 38 39 41 42 44 44 45 46 46 47 48 49 49 49 50 50 51 51 52 52 52 52 52 53 53 53 55 56 56 56 57 57 57 57
32 33 33 34 35 36 37 39 40 41 42 43 44 45 46 47 48 48 48 49 50 51 51 51 50 51 51 51 50 50 51 53 54 54 54 54 54 54
31 32 32 33 34 35 35 37 38 39 39 40 41 42 43 44 45 45 46 47 48 48 49 49 49 49 49 49 49 49 49 49 51 52 52 52 52 52
29 30 31 32 32 33 34 34 35 37 37 38 38 39 40 40 40 42 43 44 45 46 47 47 47 47 48 48 47 47 47 48 48 48 48 48 49 49
Wind_Direction
256 256 255 254 254 254 254 254 252 251 251 251 250 249 248 248 248 248 248 248 249 250 250 251 253 254 254 254 254 256 256 256 257 258 259 260 261 263
257 256 256 256 255 255 254 254 252 251 251 251 250 249 248 248 248 248 248 249 249 250 250 250 252 252 253 252 253 254 256 256 256 257 258 260 260 263
257 257 257 256 256 255 254 254 253 251 251 250 250 249 248 248 247 248 248 249 249 249 250 250 251 252 252 252 253 253 255 257 257 257 258 259 260 262
256 256 257 256 256 256 255 255 253 252 251 250 250 249 248 247 247 247 248 249 249 249 249 250 251 252 252 253 254 255 256 257 256 257 258 259 261 262
256 257 257 256 256 255 255 255 255 253 252 251 250 249 248 248 246 246 247 248 250 249 249 250 251 252 253 253 254 255 257 257 257 257 259 259 261 262
257 256 256 256 256 255 255 255 256 255 253 251 250 249 248 248 248 247 247 248 250 250 249 250 251 251 252 253 254 255 256 257 258 259 259 260 260 261
257 256 256 256 256 255 255 255 255 254 253 251 250 248 248 248 248 248 248 248 249 249 250 250 250 251 251 252 253 254 256 257 259 259 259 259 260 260
257 256 256 256 255 255 254 254 254 254 253 251 250 248 248 249 249 249 249 249 249 249 250 250 250 251 252 252 253 254 255 256 257 258 258 258 258 259
257 257 256 255 254 254 254 254 254 253 252 251 250 249 249 249 249 249 249 249 248 248 249 250 251 252 252 252 253 253 254 255 255 256 257 257 258 259
257 257 256 255 254 253 254 254 253 252 252 251 251 250 249 250 249 249 249 248 248 248 250 250 250 252 253 253 254 253 254 254 254 255 256 257 258 259
258 258 257 256 255 254 254 253 253 252 252 251 251 250 250 250 250 250 249 248 248 249 250 250 250 250 251 252 253 253 253 253 253 254 255 256 258 259
258 258 258 256 255 254 254 253 253 252 252 252 253 253 252 252 251 250 249 249 249 249 249 249 250 249 249 250 252 252 252 252 252 253 255 257 259 260
258 257 256 256 256 255 254 253 253 253 253 253 253 253 253 252 251 251 249 249 249 248 247 248 249 249 250 250 251 252 252 252 253 253 255 257 259 260
257 257 256 256 256 255 254 254 253 254 253 253 253 252 251 251 250 250 250 250 250 249 248 249 249 250 251 251 251 252 253 253 253 254 255 257 259 261
258 257 257 257 256 255 254 253 253 254 254 254 253 251 250 249 248 249 250 250 250 250 250 250 250 251 251 251 251 252 253 254 254 255 256 257 259 260
259 258 257 257 256 255 254 254 254 254 253 253 252 251 250 249 249 248 249 249 249 250 250 251 250 251 252 252 252 253 253 254 254 256 256 257 258 260
259 258 257 257 256 255 254 253 253 252 252 252 252 251 250 249 249 248 248 249 249 250 251 252 252 252 253 254 253 253 254 254 255 256 257 258 259 260
259 258 258 257 255 254 254 253 252 252 252 252 251 251 250 249 248 248 248 248 249 250 251 252 253 253 253 254 254 254 255 255 256 257 258 259 259 260
261 260 259 257 256 254 254 253 253 253 254 253 252 251 250 249 249 248 248 248 249 250 251 252 253 253 253 254 254 255 255 255 256 257 259 260 260 260
261 261 259 258 257 255 255 254 254 253 254 253 252 251 250 250 250 249 248 248 249 250 251 252 253 253 253 254 254 255 255 255 256 258 259 259 259 260
262 261 259 258 257 256 256 255 254 253 253 252 251 251 250 250 250 249 249 249 249 249 250 251 252 253 254 254 255 255 256 256 257 258 260 260 260 260
263 262 260 258 258 258 257 256 255 254 252 252 251 251 250 250 249 249 249 249 249 249 249 250 251 252 253 253 254 255 256 257 258 259 260 261 261 261
264 263 262 260 258 258 258 257 256 254 252 251 250 249 249 248 248 248 249 249 249 249 249 249 249 250 252 253 254 255 256 257 258 259 261 261 262 263